[[{"header":{"parameterUnit":"m.s-1","parameterCategory":1,"la1":30.2991,"la2":30.254,"lo1":-89.0895,"lo2":-89.0444,"dy":0.0017,"dx":0.0017,"nx":28,"ny":28,"refTime":"2024-03-16T09:00:00:Z","depth":0,"parameterNumber":2,"parameterNumberName":"U-component_of_WINDS"},"data":[0,0,0,0,0,0,0,0,0,0,0,0,0,0,0,0,0,0,0,0,0,0,0,0,0,0,0,0,0,0,0,0,0,0,0,0,0,0,0,0,0,0,0,0,0,0,0,0,0,0,0,0,0,0,0,0,0,0,-1.8724,-1.8725,0,-1.8766,-1.8767,-1.8767,-1.8729,-1.8727,-1.8725,-1.8724,-1.877,-1.8773,-1.8775,0,0,0,0,0,0,0,0,0,0,0,0,0,-1.8613,-1.8615,-1.8724,-1.8725,-1.8725,-1.8766,-1.8767,-1.8767,-1.8729,-1.8727,-1.8725,-1.8723,-1.8769,-1.8772,-1.8776,0,0,0,0,0,0,0,0,0,0,0,0,0,-1.8659,-1.8616,-1.8724,-1.8711,-1.871,-1.8766,-1.8767,-1.8767,-1.8729,-1.8727,-1.8725,-1.8722,-1.8768,-1.8772,-1.8776,-1.8848,0,0,-1.8788,-1.879,0,0,0,0,0,0,0,0,-1.8657,-1.8663,-1.8712,-1.8712,-1.8711,-1.874,-1.8744,-1.8795,-1.873,-1.8722,-1.8724,-1.8721,-1.8762,-1.8766,-1.878,-1.885,-1.8852,-1.8789,-1.8791,-1.8793,-1.8794,0,0,0,0,0,0,0,-1.8653,-1.8661,-1.8741,-1.8713,-1.8712,-1.8704,-1.8708,-1.8754,-1.8755,-1.8723,-1.872,-1.8725,-1.8761,-1.8776,-1.878,-1.8853,-1.8789,-1.8792,-1.8795,-1.8796,-1.8985,-1.8987,0,0,0,0,0,0,-1.8651,-1.8659,-1.8739,-1.8742,-1.8677,-1.8708,-1.8712,-1.8733,-1.8754,-1.8755,-1.8727,-1.8723,-1.877,-1.8776,-1.8782,-1.8868,-1.8793,-1.8797,-1.8799,-1.8982,-1.8985,-1.8988,0,0,0,0,0,0,-1.8649,-1.8659,-1.8738,-1.87,-1.8709,-1.8712,-1.8736,-1.8735,-1.8749,-1.8758,-1.8758,-1.8742,-1.8768,-1.8776,-1.8832,-1.8869,-1.8798,-1.8802,-1.8979,-1.8983,-1.8987,-1.904,0,0,0,0,0,0,-1.8646,-1.8658,-1.8685,-1.8701,-1.8711,-1.8786,-1.8738,-1.8737,-1.8756,-1.8751,-1.8771,-1.8772,-1.8767,-1.8826,-1.8836,-1.8873,-1.8805,-1.8976,-1.8981,-1.8986,-1.9035,-1.9045,-1.9054,0,0,0,0,0,-1.8642,-1.8699,-1.8687,-1.8696,-1.8745,-1.8788,-1.8795,-1.8787,-1.8759,-1.8787,-1.8792,-1.8772,-1.8863,-1.8832,-1.8843,-1.8882,-1.8974,-1.898,-1.8985,-1.9031,-1.9043,-1.9054,0,0,0,0,0,0,-1.8689,-1.8701,-1.8687,-1.875,-1.8769,-1.8782,-1.8816,-1.88,-1.8827,-1.8822,-1.8812,-1.8817,-1.8875,-1.8884,-1.8849,-1.8953,-1.8914,-1.8922,-1.8945,-1.8957,-1.8966,-1.8963,-1.8809,0,0,0,0,0,-1.8706,-1.874,-1.8749,-1.8804,-1.8814,-1.8813,-1.8832,-1.8824,-1.8843,-1.8851,-1.886,-1.888,-1.8913,-1.8935,-1.8966,-1.9036,-1.904,-1.9068,-1.9078,-1.9085,-1.9093,-1.9131,-1.9144,-1.9007,-1.9007,-1.9007,0,0,-1.8743,-1.8754,-1.8776,-1.8814,-1.8827,-1.8863,-1.882,-1.886,-1.8887,-1.8857,-1.891,-1.8918,-1.8939,-1.9002,-1.903,-1.9011,-1.9131,-1.9093,-1.9099,-1.9102,-1.9138,-1.9151,-1.9162,-1.9011,-1.9011,-1.901,0,0,-1.8829,-1.884,-1.8887,-1.8901,-1.8921,-1.892,-1.8931,-1.8947,-1.8951,-1.9003,-1.8982,-1.9014,-1.9071,-1.9087,-1.9103,-1.9195,-1.9177,-1.9205,-1.9255,-1.9292,-1.9303,-1.9312,-1.9346,-1.9358,-1.9212,-1.9213,-1.9213,0,-1.8872,-1.8925,-1.8913,-1.8955,-1.8972,-1.8946,-1.8994,-1.9008,-1.9038,-1.9051,-1.9029,-1.91,-1.9113,-1.9179,-1.9201,-1.9215,-1.9228,-1.9203,-1.9302,-1.9312,-1.932,-1.9352,-1.9364,-1.9216,-1.9215,-1.9215,-1.9215,0,-1.8978,-1.9014,-1.905,-1.9078,-1.91,-1.9144,-1.9141,-1.9164,-1.9154,-1.9156,-1.9211,-1.9225,-1.9258,-1.9273,-1.9264,-1.9339,-1.9326,-1.9303,-1.9264,-1.9337,-1.9366,-1.9378,-1.9221,-1.9219,-1.9218,-1.9218,0,0,-1.9094,-1.9115,-1.9129,-1.9141,-1.9161,-1.919,-1.9233,-1.9265,-1.9285,-1.9307,-1.9344,-1.9392,-1.9371,-1.9389,-1.9382,-1.9415,-1.9487,-1.9388,-1.9388,-1.9406,-1.957,-1.9587,-1.9602,-1.9475,-1.9477,-1.9479,-1.9568,0,-1.9181,-1.9256,-1.9247,-1.9319,-1.9353,-1.9328,-1.9366,-1.9383,-1.9386,-1.9417,-1.942,-1.9455,-1.9424,-1.9435,-1.9466,-1.9471,-1.952,-1.9465,-1.951,-1.9512,-1.9506,-1.9617,-1.9635,-1.9719,-1.958,-1.9582,-1.9583,0,-1.9292,-1.9316,-1.9391,-1.9406,-1.942,-1.9454,-1.9483,-1.9511,-1.953,-1.953,-1.955,-1.9537,-1.9582,-1.9541,-1.9603,-1.9566,-1.9584,-1.959,-1.9593,-1.9598,-1.9552,-1.9625,-1.9746,-1.9758,-1.9601,-1.96,-1.9598,0,-1.9371,-1.9422,-1.9473,-1.9485,-1.9503,-1.9528,-1.9537,-1.9553,-1.9573,-1.9598,-1.9611,-1.9641,-1.9658,-1.9682,-1.9678,-1.9649,-1.9742,-1.9701,-1.9744,-1.9744,-1.9765,-1.9764,-1.9891,-1.9776,-1.9775,-1.9775,-1.9775,0,-1.9469,-1.9516,-1.9509,-1.9541,-1.9593,-1.9582,-1.9635,-1.9641,-1.9656,-1.9689,-1.9669,-1.9701,-1.9694,-1.9726,-1.9723,-1.9775,-1.9783,-1.9784,-1.9783,-1.9787,-1.9786,-1.9799,-1.9793,-1.9778,-1.9778,-1.9777,-1.9777,0,-1.9565,-1.9562,-1.9617,-1.9629,-1.9634,-1.9672,-1.9683,-1.9713,-1.9714,-1.9757,-1.9766,-1.9768,-1.9805,-1.9803,-1.9845,-1.9843,-1.9907,-1.9899,-1.99,-1.9899,-1.9942,-1.9938,-2.0082,-2.0101,-1.9973,-1.9974,-1.9975,0,-1.9628,-1.9664,-1.968,-1.97,-1.971,-1.9743,-1.9763,-1.9754,-1.9776,-1.98,-1.9828,-1.9862,-1.9889,-1.9949,-1.9955,-1.9986,-1.9979,-2.0027,-1.9984,-1.9986,-1.9981,-1.9979,-1.9982,-2.0036,-2.0038,-2.0039,-2.004,0,-1.9741,-1.9737,-1.9766,-1.9794,-1.9817,-1.984,-1.986,-1.9878,-1.9871,-1.9896,-1.9933,-1.9954,-1.9995,-2.003,-2.0061,-2.0071,-2.0055,-2.0053,-2.0065,-2.0069,-2.0069,-2.007,-1.9924,-2.005,-2.0049,-2.0048,-2.0048,-2.0047,-1.9823,-1.9853,-1.9869,-1.9901,-1.9915,-1.9934,-1.9963,-1.9968,-1.9998,-2.003,-2.0024,-2.0065,-2.0083,-2.0122,-2.0135,-2.0168,-2.0151,-2.0168,-2.0172,-2.0176,-2.0182,-2.0063,-2.0173,-2.0173,-2.0173,-2.0172,-2.0172,0,-1.9934,-1.9943,-1.9973,-2.0001,-2.0027,-2.0008,-2.0029,-2.0052,-2.0088,-2.0106,-2.0133,-2.0175,-2.0209,-2.0217,-2.0249,-2.0274,-2.0268,-2.0283,-2.0281,-2.0284,-2.0195,-2.0181,-2.0288,-2.0288,-2.0288,-2.0288,-2.0288,-2.0288,-1.9995,-2.0046,-2.0045,-2.0102,-2.0111,-2.015,-2.0164,-2.0182,-2.0196,-2.0243,-2.0271,-2.0275,-2.029,-2.0323,-2.0353,-2.0355,-2.0368,-2.0387,-2.0386,-2.0302,-2.029,-2.0279,-2.0267,-2.0389,-2.039,-2.0472,-2.0473,-2.0474]},{"header":{"parameterUnit":"m.s-1","parameterCategory":1,"la1":30.2991,"la2":30.254,"lo1":-89.0895,"lo2":-89.0444,"dy":0.0017,"dx":0.0017,"nx":28,"ny":28,"refTime":"2024-03-16T09:00:00:Z","depth":0,"parameterNumber":3,"parameterNumberName":"V-component_of_WINDS"},"data":[0,0,0,0,0,0,0,0,0,0,0,0,0,0,0,0,0,0,0,0,0,0,0,0,0,0,0,0,0,0,0,0,0,0,0,0,0,0,0,0,0,0,0,0,0,0,0,0,0,0,0,0,0,0,0,0,0,0,0.7199,0.7199,0,0.7186,0.7186,0.7186,0.7198,0.7199,0.7199,0.72,0.7184,0.7183,0.7183,0,0,0,0,0,0,0,0,0,0,0,0,0,0.7234,0.7233,0.7199,0.7199,0.7199,0.7186,0.7186,0.7186,0.7198,0.7199,0.7199,0.72,0.7185,0.7184,0.7183,0,0,0,0,0,0,0,0,0,0,0,0,0,0.722,0.7233,0.7199,0.7204,0.7204,0.7186,0.7186,0.7186,0.7198,0.7199,0.7199,0.72,0.7185,0.7184,0.7182,0.716,0,0,0.7178,0.7178,0,0,0,0,0,0,0,0,0.722,0.7218,0.7203,0.7203,0.7203,0.7195,0.7193,0.7177,0.7198,0.72,0.72,0.7201,0.7187,0.7186,0.7182,0.7159,0.7158,0.7178,0.7178,0.7177,0.7177,0,0,0,0,0,0,0,0.7221,0.7219,0.7194,0.7203,0.7203,0.7206,0.7205,0.719,0.719,0.72,0.7201,0.7199,0.7187,0.7183,0.7181,0.7158,0.7178,0.7177,0.7176,0.7176,0.7117,0.7117,0,0,0,0,0,0,0.7222,0.722,0.7195,0.7194,0.7214,0.7205,0.7203,0.7197,0.719,0.7189,0.7199,0.72,0.7185,0.7183,0.7181,0.7154,0.7177,0.7176,0.7175,0.7118,0.7117,0.7116,0,0,0,0,0,0,0.7223,0.722,0.7195,0.7207,0.7204,0.7203,0.7196,0.7196,0.7192,0.7189,0.7189,0.7194,0.7185,0.7183,0.7165,0.7153,0.7175,0.7174,0.7119,0.7118,0.7117,0.71,0,0,0,0,0,0,0.7224,0.722,0.7211,0.7207,0.7203,0.718,0.7195,0.7195,0.719,0.7191,0.7184,0.7184,0.7186,0.7167,0.7164,0.7152,0.7173,0.712,0.7119,0.7117,0.7101,0.7098,0.7095,0,0,0,0,0,0.7225,0.7206,0.7211,0.7207,0.7192,0.7179,0.7177,0.718,0.7189,0.718,0.7178,0.7184,0.7156,0.7165,0.7162,0.7149,0.7121,0.7119,0.7117,0.7102,0.7099,0.7095,0,0,0,0,0,0,0.7207,0.7205,0.721,0.719,0.7185,0.7181,0.717,0.7175,0.7167,0.7168,0.7172,0.717,0.7152,0.7149,0.716,0.7128,0.714,0.7137,0.713,0.7126,0.7123,0.7123,0.7172,0,0,0,0,0,0.7202,0.7191,0.719,0.7172,0.7169,0.717,0.7164,0.7167,0.7162,0.7159,0.7156,0.715,0.714,0.7133,0.7124,0.7102,0.71,0.7092,0.7089,0.7086,0.7083,0.7072,0.7068,0.7111,0.7111,0.7111,0,0,0.7188,0.7186,0.7179,0.7168,0.7164,0.7153,0.7168,0.7155,0.7147,0.7157,0.714,0.7139,0.7132,0.7113,0.7104,0.711,0.7072,0.7084,0.7082,0.7081,0.707,0.7066,0.7062,0.7109,0.711,0.711,0,0,0.7158,0.7156,0.7141,0.7138,0.7133,0.7134,0.713,0.7127,0.7126,0.711,0.7118,0.7108,0.709,0.7086,0.7081,0.7053,0.7058,0.705,0.7033,0.7022,0.7019,0.7016,0.7005,0.7002,0.7047,0.7047,0.7047,0,0.7142,0.7126,0.7132,0.7119,0.7115,0.7125,0.711,0.7106,0.7098,0.7094,0.7102,0.7081,0.7077,0.7057,0.705,0.7046,0.7042,0.7049,0.7019,0.7016,0.7014,0.7003,0.6999,0.7046,0.7046,0.7047,0.7047,0,0.7107,0.7096,0.7084,0.7077,0.7072,0.7058,0.7061,0.7055,0.7059,0.706,0.7044,0.7041,0.7031,0.7027,0.703,0.7007,0.7011,0.7019,0.7031,0.7008,0.6999,0.6995,0.7045,0.7045,0.7046,0.7046,0,0,0.7062,0.7061,0.7057,0.7054,0.7051,0.7042,0.703,0.7022,0.7016,0.7011,0.7,0.6986,0.6994,0.6989,0.6992,0.6983,0.696,0.6992,0.6991,0.6985,0.6935,0.6928,0.6923,0.6965,0.6964,0.6963,0.6935,0,0.7032,0.701,0.7016,0.6994,0.6984,0.6996,0.6985,0.6981,0.6982,0.6974,0.6975,0.6965,0.6976,0.6973,0.6965,0.6965,0.695,0.6967,0.6954,0.6953,0.6953,0.6918,0.691,0.6883,0.6931,0.6931,0.693,0,0.6992,0.6987,0.6965,0.6965,0.6961,0.695,0.6944,0.6937,0.6934,0.6935,0.6931,0.6937,0.6924,0.6938,0.6921,0.6933,0.6928,0.6928,0.6927,0.6924,0.6939,0.6913,0.6875,0.687,0.6925,0.6925,0.6925,0,0.6961,0.6949,0.6934,0.6932,0.6931,0.6924,0.6924,0.6922,0.6917,0.6912,0.6909,0.6902,0.6897,0.6892,0.6896,0.6906,0.6878,0.6893,0.6878,0.6878,0.687,0.687,0.6829,0.687,0.687,0.687,0.687,0,0.6926,0.6911,0.692,0.6911,0.6895,0.6903,0.6887,0.6888,0.6887,0.6878,0.6888,0.6879,0.6886,0.6878,0.6881,0.6866,0.6865,0.6865,0.6866,0.6863,0.6863,0.6858,0.686,0.6869,0.6869,0.6869,0.687,0,0.6887,0.6893,0.6877,0.6879,0.6879,0.6868,0.6869,0.6861,0.6864,0.6852,0.685,0.6854,0.6845,0.685,0.684,0.6843,0.6823,0.6827,0.6824,0.6825,0.681,0.6811,0.6763,0.6757,0.6803,0.6803,0.6803,0,0.6862,0.6852,0.6853,0.6849,0.6848,0.684,0.6836,0.6844,0.6839,0.6836,0.6828,0.6821,0.6815,0.68,0.6802,0.6795,0.6798,0.6782,0.6797,0.6795,0.6797,0.6796,0.6795,0.6778,0.6778,0.6777,0.6777,0,0.6818,0.6823,0.6816,0.6812,0.6807,0.6803,0.6801,0.6796,0.6805,0.6799,0.6791,0.6786,0.6778,0.677,0.6765,0.6764,0.6771,0.6773,0.6769,0.6765,0.6763,0.6763,0.6814,0.6773,0.6773,0.6774,0.6774,0.6774,0.6785,0.6777,0.6777,0.677,0.677,0.6768,0.676,0.6763,0.6757,0.6751,0.6757,0.6747,0.6746,0.674,0.6738,0.6731,0.6737,0.6731,0.673,0.6728,0.6725,0.6766,0.673,0.673,0.673,0.673,0.673,0,0.6741,0.6742,0.6736,0.6733,0.6728,0.6738,0.6737,0.6731,0.6723,0.6722,0.6717,0.6708,0.6701,0.6704,0.6698,0.6691,0.6695,0.6689,0.6689,0.6688,0.6721,0.6724,0.6687,0.6687,0.6687,0.6687,0.6687,0.6687,0.6717,0.6703,0.6708,0.6694,0.6696,0.6687,0.6685,0.6683,0.6683,0.6673,0.6667,0.667,0.6671,0.6665,0.666,0.6661,0.6657,0.665,0.6652,0.6682,0.6686,0.669,0.6693,0.665,0.665,0.662,0.662,0.662]}]]